KellyUSA Airport, TX

2:26 PM CDT on April 28, 2017 (GMT -0500)
Kelly Air Force Base

Weather History for KSKF - October, 2012

Change the Weather History Date:

Tuesday, October 30, 2012

  Actual Average Record
Temperature  
Mean Temperature 59 °F -  
Max Temperature 76 °F 76 °F 87 °F (2004)
Min Temperature 43 °F 56 °F 37 °F (2010)
Degree Days  
Heating Degree Days 6    
Growing Degree Days 9 (Base 50)    
Moisture  
Dew Point 49 °F    
Average Humidity 70    
Maximum Humidity 91    
Minimum Humidity 46    
Precipitation  
Precipitation 0.00 in - - ()
Sea Level Pressure  
Sea Level Pressure 30.05 in    
Wind  
Wind Speed 2 mph (SSE)    
Max Wind Speed 8 mph    
Max Gust Speed -    
Visibility 10 miles    
Events      
Averages and records for this station are not official NWS values.
T = Trace of Precipitation, MM = Missing Value Source: NWS Daily Summary

Daily Weather History Graph

Daily Weather History Graph

Search for Another Location

Airport or City:

Trip Planner

Search our weather history database for the weather conditions in past years. The results will help you decide how hot, cold, wet, or windy it might be!

Date:

Astronomy

Oct. 30, 2012 Rise Set
Actual Time 7:46 AM CDT 6:49 PM CDT
Civil Twilight 7:21 AM CDT 7:13 PM CDT
Nautical Twilight 6:53 AM CDT 7:41 PM CDT
Astronomical Twilight 6:25 AM CDT 8:09 PM CDT
Moon 7:26 PM CDT (10/30) 8:28 AM CDT (10/30)
Length of Visible Light 11h 51m
Length of Day
11h 02m
Full, 99% of the Moon is Illuminated
Oct 30
Full
Nov 6
Last Quarter
Nov 13
New
Nov 20
First Quarter
Nov 28
Full

Hourly Weather History & Observations

Time (CDT) Temp. Windchill Dew Point Humidity Pressure Visibility Wind Dir Wind Speed Gust Speed Precip Events Conditions
12:55 AM 47.1 °F - 42.6 °F 84% 30.12 in 10.0 mi Calm Calm - N/A   Clear
1:55 AM 46.6 °F - 41.5 °F 83% 30.12 in 10.0 mi Calm Calm - N/A   Clear
2:55 AM 45.7 °F - 40.5 °F 82% 30.11 in 10.0 mi Calm Calm - N/A   Clear
3:55 AM 45.0 °F 43.5 °F 41.0 °F 86% 30.09 in 10.0 mi NNW 3.5 mph - N/A   Clear
4:55 AM 45.1 °F - 41.4 °F 87% 30.07 in 10.0 mi Calm Calm - N/A   Clear
5:55 AM 44.4 °F - 41.4 °F 89% 30.07 in 10.0 mi Calm Calm - N/A   Clear
6:55 AM 43.3 °F - 40.8 °F 91% 30.08 in 10.0 mi Calm Calm - N/A   Clear
7:55 AM 43.7 °F - 41.0 °F 90% 30.09 in 10.0 mi Calm Calm - N/A   Clear
8:55 AM 50.9 °F - 45.0 °F 80% 30.10 in 10.0 mi Calm Calm - N/A   Clear
9:55 AM 59.0 °F - 46.8 °F 64% 30.11 in 10.0 mi Calm Calm - N/A   Clear
10:55 AM 65.1 °F - 51.3 °F 61% 30.10 in 10.0 mi Calm Calm - N/A   Clear
11:00 AM 66.2 °F - 51.8 °F 60% 30.10 in 4.0 mi SSE 4.6 mph - N/A   Haze
11:04 AM 66.2 °F - 51.8 °F 60% 30.10 in 10.0 mi Variable 4.6 mph - N/A   Clear
11:55 AM 69.1 °F - 53.2 °F 57% 30.09 in 10.0 mi South 6.9 mph - N/A   Clear
12:55 PM 72.7 °F - 54.5 °F 53% 30.06 in 10.0 mi Variable 6.9 mph - N/A   Clear
1:55 PM 73.9 °F - 53.6 °F 49% 30.03 in 10.0 mi SSE 6.9 mph - N/A   Clear
2:55 PM 74.5 °F - 53.4 °F 48% 29.99 in 10.0 mi South 6.9 mph - N/A   Clear
3:55 PM 75.4 °F - 53.4 °F 46% 29.97 in 10.0 mi Calm Calm - N/A   Clear
4:55 PM 75.9 °F - 53.8 °F 46% 29.96 in 10.0 mi South 8.1 mph - N/A   Clear
5:55 PM 74.3 °F - 56.1 °F 53% 29.96 in 10.0 mi South 3.5 mph - N/A   Clear
6:55 PM 68.7 °F - 56.3 °F 64% 29.97 in 10.0 mi Calm Calm - N/A   Clear
7:55 PM 67.8 °F - 53.6 °F 60% 29.98 in 10.0 mi East 4.6 mph - N/A   Clear
8:55 PM 62.2 °F - 54.3 °F 75% 29.99 in 10.0 mi Calm Calm - N/A   Clear
9:55 PM 58.8 °F - 54.3 °F 85% 30.00 in 10.0 mi Calm Calm - N/A   Clear
10:55 PM 61.7 °F - 53.8 °F 75% 30.01 in 10.0 mi Calm Calm - N/A   Clear
11:55 PM 58.6 °F - 53.4 °F 83% 30.01 in 10.0 mi Calm Calm - N/A   Clear